Location: Austin
(30.3000°N, 97.7500°W)
Time: 04:43:52
(UTC-06:00)

USA 290 - Pass Details

Date: 05 February 2026
Orbit: 396 x 415 km, 73.6° (Epoch: 30 October)

Event Time Altitude Azimuth Distance (km) Brightness Sun altitude
Exits shadow 06:31:20 15° 302° (WNW) 1,158 3.9 -10.8°
Maximum altitude 06:33:02 24° 258° (WSW) 878 3.3 -10.4°
Drops below altitude 10° 06:35:37 10° 203° (SSW) 1,431 4.8 -9.9°
Sets 06:37:52 0° 188° (S) 2,283 6.1 -9.4°
